Tillbaka till svenska Fidonet
English   Information   Debug  
FILM   0/18
FNEWS_PUBLISH   4178
FN_SYSOP   41525
FN_SYSOP_OLD1   71952
FTP_FIDO   0/2
FTSC_PUBLIC   0/13569
FUNNY   0/4886
GENEALOGY.EUR   0/71
GET_INFO   105
GOLDED   0/408
HAM   0/16052
HOLYSMOKE   0/6791
HOT_SITES   0/1
HTMLEDIT   0/71
HUB203   466
HUB_100   264
HUB_400   39
HUMOR   0/29
IC   0/2851
INTERNET   0/424
INTERUSER   0/3
IP_CONNECT   719
JAMNNTPD   0/233
JAMTLAND   0/47
KATTY_KORNER   0/41
LAN   0/16
LINUX-USER   0/19
LINUXHELP   0/1155
LINUX   0/22010
LINUX_BBS   0/957
mail   18.68
mail_fore_ok   249
MENSA   0/341
MODERATOR   0/102
MONTE   0/992
MOSCOW_OKLAHOMA   0/1245
MUFFIN   0/783
MUSIC   0/321
N203_STAT   898
N203_SYSCHAT   313
NET203   321
NET204   69
NET_DEV   0/10
NORD.ADMIN   0/101
NORD.CHAT   0/2572
NORD.FIDONET   189
NORD.HARDWARE   0/28
NORD.KULTUR   0/114
NORD.PROG   0/32
NORD.SOFTWARE   0/88
NORD.TEKNIK   0/58
NORD   0/453
OCCULT_CHAT   0/93
OS2BBS   0/787
OS2DOSBBS   0/580
OS2HW   0/42
OS2INET   0/37
OS2LAN   0/134
OS2PROG   0/36
OS2REXX   0/113
OS2USER-L   207
OS2   0/4784
OSDEBATE   0/18996
PASCAL   0/490
PERL   0/457
PHP   0/45
POINTS   0/405
POLITICS   0/29554
POL_INC   0/14731
PSION   103
R20_ADMIN   1117
R20_AMATORRADIO   0/2
R20_BEST_OF_FIDONET   13
R20_CHAT   0/893
R20_DEPP   0/3
R20_DEV   399
R20_ECHO2   1379
R20_ECHOPRES   0/35
R20_ESTAT   0/719
R20_FIDONETPROG...
...RAM.MYPOINT
  0/2
R20_FIDONETPROGRAM   0/22
R20_FIDONET   0/248
R20_FILEFIND   0/24
R20_FILEFOUND   0/22
R20_HIFI   0/3
R20_INFO2   2736
R20_INTERNET   0/12940
R20_INTRESSE   0/60
R20_INTR_KOM   0/99
R20_KANDIDAT.CHAT   42
R20_KANDIDAT   28
R20_KOM_DEV   112
R20_KONTROLL   0/13050
R20_KORSET   0/18
R20_LOKALTRAFIK   0/24
R20_MODERATOR   0/1852
R20_NC   76
R20_NET200   245
R20_NETWORK.OTH...
...ERNETS
  0/13
R20_OPERATIVSYS...
...TEM.LINUX
  0/44
R20_PROGRAMVAROR   0/1
R20_REC2NEC   534
R20_SFOSM   0/340
R20_SF   0/108
R20_SPRAK.ENGLISH   0/1
R20_SQUISH   107
R20_TEST   2
R20_WORST_OF_FIDONET   12
RAR   0/9
RA_MULTI   106
RA_UTIL   0/162
REGCON.EUR   0/2055
REGCON   0/13
SCIENCE   0/1206
SF   0/239
SHAREWARE_SUPPORT   0/5146
SHAREWRE   0/14
SIMPSONS   0/169
STATS_OLD1   0/2539.065
STATS_OLD2   0/2530
STATS_OLD3   0/2395.095
STATS_OLD4   0/1692.25
SURVIVOR   0/495
SYSOPS_CORNER   0/3
SYSOP   0/84
TAGLINES   0/112
TEAMOS2   0/4530
TECH   0/2617
TEST.444   0/105
TRAPDOOR   0/19
TREK   0/755
TUB   0/290
UFO   0/40
UNIX   0/1316
USA_EURLINK   0/102
USR_MODEMS   0/1
VATICAN   0/2740
VIETNAM_VETS   0/14
VIRUS   0/378
VIRUS_INFO   0/201
VISUAL_BASIC   0/473
WHITEHOUSE   0/5187
WIN2000   0/101
WIN32   0/30
WIN95   0/4276
WIN95_OLD1   0/70272
WINDOWS   0/1517
WWB_SYSOP   0/419
WWB_TECH   0/810
ZCC-PUBLIC   0/1
ZEC   4

 
4DOS   0/134
ABORTION   0/7
ALASKA_CHAT   0/506
ALLFIX_FILE   0/1313
ALLFIX_FILE_OLD1   0/7997
ALT_DOS   0/152
AMATEUR_RADIO   0/1039
AMIGASALE   0/14
AMIGA   0/331
AMIGA_INT   0/1
AMIGA_PROG   0/20
AMIGA_SYSOP   0/26
ANIME   0/15
ARGUS   0/924
ASCII_ART   0/340
ASIAN_LINK   0/651
ASTRONOMY   0/417
AUDIO   0/92
AUTOMOBILE_RACING   0/105
BABYLON5   0/17862
BAG   135
BATPOWER   0/361
BBBS.ENGLISH   0/382
BBSLAW   0/109
BBS_ADS   0/5290
BBS_INTERNET   0/507
BIBLE   0/3563
BINKD   0/1119
BINKLEY   0/215
BLUEWAVE   0/2173
CABLE_MODEMS   0/25
CBM   0/46
CDRECORD   0/66
CDROM   0/20
CLASSIC_COMPUTER   0/378
COMICS   0/15
CONSPRCY   0/899
COOKING   28146
COOKING_OLD1   0/24719
COOKING_OLD2   0/40862
COOKING_OLD3   0/37489
COOKING_OLD4   0/35496
COOKING_OLD5   9370
C_ECHO   0/189
C_PLUSPLUS   0/31
DIRTY_DOZEN   0/201
DOORGAMES   0/2006
DOS_INTERNET   0/196
duplikat   6000
ECHOLIST   0/18295
EC_SUPPORT   0/318
ELECTRONICS   0/359
ELEKTRONIK.GER   1534
ENET.LINGUISTIC   0/13
ENET.POLITICS   0/4
ENET.SOFT   0/11701
ENET.SYSOP   33794
ENET.TALKS   0/32
ENGLISH_TUTOR   0/2000
EVOLUTION   0/1335
FDECHO   0/217
FDN_ANNOUNCE   0/7068
FIDONEWS   23490
FIDONEWS_OLD1   0/49742
FIDONEWS_OLD2   0/35949
FIDONEWS_OLD3   0/30874
FIDONEWS_OLD4   0/37224
FIDO_SYSOP   12841
FIDO_UTIL   0/180
FILEFIND   0/209
FILEGATE   0/212
Möte HAM, 16052 texter
 lista första sista föregående nästa
Text 3172, 829 rader
Skriven 2009-08-20 22:30:18 av Amsat List (1:323/120.0)
Ärende: [keps]  orb09232.amsa
=============================
[keps]  orb09232.amsa

Return-Path: <keps-bounces@amsat.org>
X-Rcpt: craig.healy@chowda.com
X-UIDL: 1250821370.65

SB KEPS @ AMSAT  $ORB09232.O
Orbital Elements  09232.OSCAR

HR AMSAT ORBITAL ELEMENTS FOR OSCAR SATELLITES
FROM WA5QGD FORT WORTH,TX August 20, 2009
Send Subscribe/unsubscribe to KEPS at 
http://www.amsat.org/mailman/listinfo/keps
BID: ORB09232.O
TO ALL RADIO AMATEURS BT

Satellite: AO-07
Catalog number: 07530
Epoch time:      09231.69446898
Element set:     559
Inclination:      101.4245 deg
RA of node:       254.0354 deg
Eccentricity:    0.0011854
Arg of perigee:   143.0502 deg
Mean anomaly:     217.1384 deg
Mean motion:   12.53576214 rev/day
Decay rate:       -2.7e-07 rev/day^2
Epoch rev:           59067
Checksum:              294

Satellite: FO-29
Catalog number: 24278
Epoch time:      09231.23192975
Element set:    0121
Inclination:      098.5446 deg
RA of node:       096.7716 deg
Eccentricity:    0.0350559
Arg of perigee:   186.8788 deg
Mean anomaly:     172.7474 deg
Mean motion:   13.52944294 rev/day
Decay rate:       -3.5e-07 rev/day^2
Epoch rev:           64227
Checksum:              352

Satellite: SO-33
Catalog number: 25509
Epoch time:      09231.80134327
Element set:     522
Inclination:      031.4324 deg
RA of node:       052.7820 deg
Eccentricity:    0.0354314
Arg of perigee:   174.7967 deg
Mean anomaly:     185.6462 deg
Mean motion:   14.28262689 rev/day
Decay rate:       2.01e-06 rev/day^2
Epoch rev:           56493
Checksum:              301

Satellite: RS-22
Catalog number: 27939
Epoch time:      09231.65356522
Element set:    0870
Inclination:      097.9343 deg
RA of node:       104.1831 deg
Eccentricity:    0.0012672
Arg of perigee:   294.9252 deg
Mean anomaly:     065.0640 deg
Mean motion:   14.63335031 rev/day
Decay rate:        9.0e-08 rev/day^2
Epoch rev:           31485
Checksum:              294

Satellite: VO-52
Catalog number: 28650
Epoch time:      09231.80325078
Element set:    0301
Inclination:      097.7374 deg
RA of node:       291.2653 deg
Eccentricity:    0.0027148
Arg of perigee:   179.2720 deg
Mean anomaly:     180.8559 deg
Mean motion:   14.81611620 rev/day
Decay rate:       2.32e-06 rev/day^2
Epoch rev:           23206
Checksum:              291

/EX
SB KEPS @ AMSAT  $ORB09232.D
Orbital Elements  09232.MICROS

HR AMSAT ORBITAL ELEMENTS FOR THE MICROSATS
FROM WA5QGD FORT WORTH,TX August 20, 2009
Send Subscribe/unsubscribe to KEPS at 
http://www.amsat.org/mailman/listinfo/keps
BID: ORB09232.D
TO ALL RADIO AMATEURS BT

Satellite: AO-16
Catalog number: 20439
Epoch time:      09231.79578839
Element set:    0682
Inclination:      098.2851 deg
RA of node:       197.3235 deg
Eccentricity:    0.0010986
Arg of perigee:   347.5702 deg
Mean anomaly:     012.5206 deg
Mean motion:   14.31830917 rev/day
Decay rate:       -3.0e-08 rev/day^2
Epoch rev:           02225
Checksum:              307

Satellite: LO-19
Catalog number: 20442
Epoch time:      09232.68079100
Element set:     596
Inclination:      098.2484 deg
RA of node:       205.1821 deg
Eccentricity:    0.0011479
Arg of perigee:   340.0494 deg
Mean anomaly:     020.0234 deg
Mean motion:   14.32065433 rev/day
Decay rate:       -9.8e-07 rev/day^2
Epoch rev:            2254
Checksum:              273

Satellite: AO-27
Catalog number: 22825
Epoch time:      09231.78102779
Element set:    0320
Inclination:      098.4404 deg
RA of node:       183.2168 deg
Eccentricity:    0.0009369
Arg of perigee:   078.2248 deg
Mean anomaly:     281.9985 deg
Mean motion:   14.29271468 rev/day
Decay rate:        6.0e-08 rev/day^2
Epoch rev:           82899
Checksum:              345

Satellite: IO-26
Catalog number: 22826
Epoch time:      09232.38996747
Element set:      48
Inclination:      098.4344 deg
RA of node:       184.5281 deg
Eccentricity:    0.0009910
Arg of perigee:   072.0485 deg
Mean anomaly:     288.1773 deg
Mean motion:   14.29524056 rev/day
Decay rate:        1.7e-07 rev/day^2
Epoch rev:           82918
Checksum:              336

Satellite: GO-32
Catalog number: 25397
Epoch time:      09231.91071441
Element set:    0971
Inclination:      098.3261 deg
RA of node:       250.8351 deg
Eccentricity:    0.0002149
Arg of perigee:   073.0626 deg
Mean anomaly:     287.0786 deg
Mean motion:   14.23161962 rev/day
Decay rate:       -9.1e-07 rev/day^2
Epoch rev:           57719
Checksum:              307

Satellite: NO-44
Catalog number: 26931
Epoch time:      09231.67030908
Element set:    0247
Inclination:      067.0510 deg
RA of node:       260.7942 deg
Eccentricity:    0.0006600
Arg of perigee:   278.0063 deg
Mean anomaly:     082.0287 deg
Mean motion:   14.29564469 rev/day
Decay rate:       1.51e-06 rev/day^2
Epoch rev:           41165
Checksum:              288

Satellite: SO-50
Catalog number: 27607
Epoch time:      09231.39440928
Element set:     962
Inclination:      064.5566 deg
RA of node:       193.1186 deg
Eccentricity:    0.0060506
Arg of perigee:   190.2734 deg
Mean anomaly:     169.7138 deg
Mean motion:   14.71453409 rev/day
Decay rate:       -2.6e-07 rev/day^2
Epoch rev:           35797
Checksum:              326

Satellite: CO-55
Catalog number: 27844
Epoch time:      09232.50617797
Element set:     648
Inclination:      098.7135 deg
RA of node:       240.7660 deg
Eccentricity:    0.0009660
Arg of perigee:   324.0453 deg
Mean anomaly:     036.0076 deg
Mean motion:   14.20651549 rev/day
Decay rate:        1.4e-07 rev/day^2
Epoch rev:           31839
Checksum:              310

